Погода в Баджиле

Йемен     15°01′56″N   43°15′45″E
темп.,
°C
ветер,
м/с
пор.,
м/с
влажн.,
%
обл.,
%
осадки,
мм/ч
давл.,
гПа
погр.,
м
18 мая, вт
вт1800:00+32сз114592 0.0 1006149
03:00+31зсз224953 0.0 1005101
06:00+30сз225732 0.0 100693
09:00+33з224522 0.0 1008665
12:00+38з33263 0.0 10061521
15:00+39зсз75158 0.0 10051656
18:00+36зсз652621 0.0 1006750
21:00+33сз334262 0.0 1007406
19 мая, ср
ср1900:00+32ссз1147100 0.0 1007131
03:00+30сз3358100 0.0 1005191
06:00+30сз236057 0.0 1006181
09:00+34з1140100 0.0 1007581
12:00+39з322399 0.0 10051504
15:00+39з972857 0.0 10031230
18:00+37зсз66237 0.0 1004964
21:00+34сз452715 0.0 1006346
20 мая, чт
чт2000:00+33зсз22345 0.0 100568
03:00+30сз225229 0.0 1004125
06:00+29ссз225898 0.0 100594
09:00+34сз2238100 0.0 1006503
12:00+40сз54249 0.0 10051326
15:00+39зсз872379 0.0 10031167
18:00+36сз6630100 0.0 1004846
21:00+33сз454717 0.0 1005339
21 мая, пт
пт2100:00+32зсз11522 0.0 100582
03:00+30зюз2260100 0.0 100465
06:00+30ююв116328 0.0 100665
09:00+34ююз55445 0.0 1007733
12:00+38юз86355 0.0 10061508
15:00+37юз763197 0.0 10051441
18:00+36юз553453 0.0 1005964
21:00+33ююз23405 0.0 1007308
22 мая, сб
сб2200:00+33ююз22425 0.0 1007131
03:00+31ююз23505 0.0 100695
06:00+30ююз126343 0.0 1007106
09:00+34юз3247100 0.0 1008611
12:00+38зюз5336100 0.0 10061425
15:00+38зюз6436100 0.0 10041465
18:00+37зюз3234100 0.1 10051066
21:00+34зюз114461 0.1 1007234